Dewpoint
-3 -2 -2 -3 -3 -3 -3 -3 -3 -2 0 2 3 5 6 2 2 1 1 2 -0 2 4 3 2 2 3 3 2 3 4 5 6 6 5 6 7 7 7 8 8 6 8 12 16 18 19 20 16 15 14 15 17 16 16 18 17 19 20 23 20 19 22
-4 -3 -3 -4 -4 -4 -4 -4 -4 -4 -2 -1 1 2 5 3 1 0 0 0 -1 -0 1 2 2 1 2 3 1 1 3 4 4 5 3 3 5 5 5 8 7 7 7 7 11 14 17 18 16 13 13 12 14 15 15 15 16 18 19 21 19 17 17
-4 -4 -4 -5 -5 -5 -5 -6 -6 -5 -5 -4 -2 -1 1 4 1 -1 -0 -1 -1 -1 -0 0 1 1 2 2 1 0 2 3 3 4 3 2 4 4 5 6 7 7 5 7 8 12 14 15 15 14 12 11 12 15 13 13 14 16 17 18 19 17 15
-5 -6 -5 -6 -6 -6 -6 -7 -7 -7 -6 -6 -5 -4 -2 2 2 -1 -1 -1 -1 -2 -2 -1 -1 -0 1 1 0 -0 0 1 2 2 3 2 3 3 4 5 6 6 6 7 7 8 12 13 12 12 11 10 10 13 11 11 12 14 15 12 15 16 15
-6 -7 -6 -6 -6 -6 -7 -7 -7 -8 -7 -7 -7 -6 -4 -0 2 -1 -2 -1 -1 -1 -3 -3 -2 -1 -1 -0 -1 -1 -1 -1 -1 0 1 1 2 1 3 3 4 5 5 5 5 7 10 12 11 11 9 9 7 9 8 9 10 10 11 10 9 12 14
-9 -8 -7 -6 -7 -7 -7 -7 -8 -8 -9 -8 -8 -7 -4 -0 2 -1 -3 -2 -1 -2 -3 -3 -3 -3 -2 -2 -2 -1 -1 -1 -2 -1 -1 0 1 1 1 2 3 3 3 4 4 6 7 8 8 7 6 7 6 7 5 5 7 8 9 8 7 8 13
-11 -10 -7 -7 -8 -8 -7 -7 -8 -9 -9 -9 -9 -7 -3 1 1 -2 -3 -3 -2 -2 -2 -2 -3 -4 -4 -3 -2 -1 -1 -1 -2 -2 -1 -1 1 1 -0 0 1 1 1 1 2 4 5 4 5 5 3 3 5 5 4 2 3 3 5 5 5 4 10
-12 -10 -9 -9 -9 -9 -8 -8 -9 -9 -10 -9 -7 -4 0 3 1 -2 -4 -4 -4 -3 -3 -3 -3 -5 -5 -4 -2 -2 -2 -2 -3 -3 -3 -2 0 1 -0 -1 -0 -1 -1 -1 -0 0 1 1 1 0 2 1 2 0 1 2 1 1 1 2 3 3 6
-12 -12 -11 -10 -10 -10 -10 -10 -11 -10 -9 -8 -5 0 3 2 -2 -3 -5 -5 -5 -4 -3 -3 -3 -5 -5 -3 -2 -2 -2 -2 -3 -4 -4 -2 -1 -0 -0 -2 -2 -2 -2 -2 -2 -2 -1 -1 -2 -2 -2 -3 -2 -2 -2 0 0 -0 0 1 0 2 5
-14 -13 -12 -12 -12 -12 -12 -13 -12 -9 -7 -2 1 2 2 0 -3 -4 -6 -6 -7 -6 -5 -4 -4 -4 -5 -5 -4 -3 -3 -3 -4 -4 -3 -2 -1 -1 -0 -2 -3 -4 -3 -3 -4 -4 -3 -4 -5 -4 -4 -4 -2 -2 -1 -2 -1 -2 -2 -1 -1 -1 2
-15 -14 -14 -14 -13 -14 -14 -14 -13 -10 5 9 9 2 1 -1 -4 -5 -7 -8 -8 -8 -6 -6 -6 -6 -5 -5 -4 -4 -4 -4 -5 -5 -3 -2 -0 1 -1 -2 -3 -3 -2 -4 -3 -4 -4 -4 -5 -5 -4 -3 -2 -2 -1 -3 -2 -2 -2 -2 -4 -5 -1
-16 -16 -15 -15 -15 -15 -15 -16 -13 2 6 8 9 5 1 -3 -5 -8 -9 -10 -11 -10 -9 -8 -7 -6 -7 -7 -7 -7 -8 -6 -6 -5 -4 -3 -1 -1 -1 -2 -3 -3 -3 -2 -4 -5 -5 -5 -5 -5 -5 -3 -3 -2 -2 -2 -1 -2 -2 -3 -4 -4 -4
-17 -17 -16 -16 -16 -17 -16 -17 -13 -0 5 8 9 9 2 -5 -5 -10 -11 -13 -14 -13 -12 -11 -10 -9 -8 -8 -7 -6 -9 -10 -9 -6 -5 -4 -2 -2 -3 -2 -1 -0 -2 -1 -4 -4 -5 -4 -3 -6 -4 -1 -2 -1 -2 -2 -2 -2 -3 -3 -4 -4 -3
-18 -18 -18 -18 -18 -18 -18 -17 -14 -2 5 7 8 8 6 -6 -7 -11 -13 -16 -16 -15 -14 -13 -12 -11 -11 -9 -8 -8 -10 -11 -10 -9 -8 -6 -5 -6 -5 -3 -1 -1 -0 -0 -1 -1 -4 -2 -1 -3 -1 0 -0 -1 -1 -1 -4 -4 -5 -5 -5 -4 -4
-19 -19 -18 -19 -19 -19 -19 -18 -15 1 4 6 7 7 3 -7 -11 -15 -18 -18 -18 -17 -16 -15 -14 -13 -13 -11 -10 -10 -10 -10 -10 -9 -7 -6 -9 -8 -6 -4 -3 -3 -2 0 1 1 1 0 1 1 1 -0 -0 -0 -1 -2 -4 -5 -6 -6 -5 -6 -5
-19 -20 -20 -19 -20 -20 -20 -19 -16 0 3 4 5 6 -4 -8 -16 -18 -20 -21 -21 -20 -17 -16 -15 -14 -14 -13 -13 -12 -10 -8 -8 -7 -7 -9 -10 -10 -9 -8 -4 2 4 0 1 1 1 1 0 4 -0 -0 -1 -2 -4 -4 -4 -6 -7 -8 -9 -9 -7
-20 -19 -20 -20 -20 -20 -20 -20 -17 -9 1 3 5 2 -6 -11 -16 -20 -18 -22 -21 -19 -18 -18 -15 -15 -15 -16 -15 -13 -10 -9 -8 -7 -8 -12 -15 -15 -15 -11 -10 -6 2 4 5 5 6 6 6 6 5 5 4 -2 -3 -7 -9 -10 -9 -11 -11 -11 -10
-20 -20 -19 -20 -20 -20 -21 -20 -18 -16 -11 2 4 -2 -8 -11 -17 -22 -22 -22 -21 -21 -21 -18 -14 -15 -17 -17 -17 -13 -12 -5 -6 -9 -11 -14 -17 -18 -17 -14 -13 -13 -10 -7 -6 -7 -8 -8 -9 -9 -8 -1 -2 -6 -4 -12 -14 -10 -11 -12 -12 -14 -12
-20 -20 -20 -20 -21 -19 -19 -20 -19 -17 -15 -0 3 -3 -9 -12 -19 -20 -20 -21 -21 -22 -21 -20 -16 -16 -16 -16 -15 -13 1 -1 -8 -10 -12 -13 -17 -18 -20 -15 -16 -14 -12 -12 -13 -14 -14 -14 -13 -12 -11 -9 -10 -8 -5 -11 -13 -12 -13 -14 -14 -13 -13
-21 -22 -22 -21 -21 -21 -21 -21 -21 -19 -16 -4 1 2 -11 -12 -18 -18 -20 -22 -22 -22 -24 -23 -22 -17 -17 -16 -15 -13 -6 -0 -4 -6 -12 -13 -18 -18 -19 -15 -15 -12 -11 -13 -15 -16 -15 -15 -14 -14 -14 -16 -15 -11 -10 -10 -10 -12 -13 -14 -15 -13 -12
-23 -23 -23 -22 -21 -21 -22 -22 -21 -20 -17 -15 -11 -1 -10 -15 -18 -19 -20 -21 -22 -25 -23 -24 -23 -23 -18 -18 -16 -14 -11 2 3 -5 -11 -17 -19 -18 -12 -11 -15 -15 -13 -17 -16 -16 -16 -16 -15 -15 -17 -18 -18 -15 -14 -14 -13 -13 -14 -16 -16 -15 -14
-23 -23 -23 -23 -22 -23 -23 -21 -20 -21 -19 -18 -16 -2 -13 -18 -20 -18 -17 -21 -27 -21 -24 -23 -22 -24 -19 -18 -16 -14 -3 1 -1 -10 -13 -14 -11 -11 -12 -14 -15 -18 -18 -19 -19 -19 -18 -17 -17 -18 -18 -18 -19 -19 -15 -18 -18 -16 -16 -15 -17 -14 -14
-25 -25 -24 -24 -23 -23 -24 -24 -22 -20 -20 -20 -18 -16 -16 -16 -17 -15 -16 -20 -24 -26 -22 -22 -22 -20 -19 -17 -15 -12 -5 -6 -13 -14 -15 -12 -11 -14 -14 -14 -20 -18 -21 -22 -22 -21 -22 -21 -21 -20 -20 -19 -21 -18 -19 -18 -19 -19 -19 -17 -15 -13 -11
-25 -25 -25 -25 -25 -24 -24 -25 -25 -21 -21 -21 -20 -19 -12 -15 -17 -17 -18 -19 -24 -24 -24 -21 -21 -19 -16 -16 -15 -15 -15 -14 -15 -16 -15 -15 -16 -16 -15 -17 -20 -23 -23 -23 -25 -25 -25 -23 -24 -24 -23 -22 -21 -20 -19 -19 -21 -21 -22 -22 -20 -18 -15
-25 -26 -26 -25 -25 -25 -25 -25 -25 -27 -23 -22 -21 -19 -19 -18 -18 -18 -19 -20 -23 -20 -21 -17 -16 -17 -17 -17 -17 -17 -17 -17 -17 -17 -17 -17 -17 -17 -21 -22 -25 -24 -28 -28 -27 -24 -25 -26 -24 -23 -22 -20 -20 -20 -22 -22 -23 -23 -23 -23 -23 -20 -17
-26 -26 -26 -26 -26 -26 -25 -25 -25 -25 -26 -22 -22 -22 -20 -20 -20 -20 -20 -19 -20 -18 -19 -19 -19 -19 -19 -19 -19 -19 -20 -20 -19 -18 -17 -18 -18 -22 -22 -26 -27 -29 -28 -28 -26 -27 -24 -23 -24 -24 -23 -23 -22 -27 -26 -26 -24 -26 -22 -25 -23 -22 -22
-26 -26 -26 -26 -26 -26 -26 -25 -25 -25 -26 -27 -28 -27 -25 -24 -24 -21 -21 -20 -21 -20 -21 -21 -20 -20 -18 -18 -18 -18 -19 -19 -19 -20 -22 -23 -25 -24 -25 -25 -28 -28 -27 -27 -28 -25 -25 -23 -25 -26 -24 -26 -26 -27 -26 -25 -22 -26 -27 -25 -26 -30 -26
-27 -27 -26 -27 -26 -26 -25 -25 -25 -25 -25 -26 -27 -27 -26 -26 -25 -25 -27 -25 -24 -24 -23 -22 -19 -19 -20 -21 -22 -23 -25 -24 -24 -23 -23 -24 -27 -25 -26 -21 -19 -17 -25 -28 -28 -27 -28 -26 -28 -30 -29 -28 -28 -29 -29 -25 -24 -25 -27 -26 -28 -29 -27
-26 -25 -25 -25 -25 -25 -25 -25 -25 -24 -20 -20 -19 -19 -20 -20 -21 -22 -23 -20 -18 -18 -19 -20 -21 -23 -24 -28 -25 -25 -25 -26 -26 -26 -25 -27 -28 -28 -29 -31 -32 -32 -27 -28 -30 -29 -28 -27 -29 -29 -29 -29 -31 -30 -29 -29 -28 -27 -28 -28 -32 -30 -29
-22 -22 -22 -22 -22 -22 -23 -24 -23 -20 -18 -18 -18 -18 -18 -18 -18 -18 -18 -18 -19 -19 -21 -22 -24 -25 -26 -27 -28 -28 -28 -27 -28 -28 -27 -27 -24 -24 -28 -29 -29 -30 -29 -29 -29 -29 -29 -29 -29 -30 -30 -31 -30 -30 -31 -29 -22 -29 -29 -30 -33 -32 -31
-19 -19 -19 -20 -21 -21 -19 -19 -19 -19 -18 -18 -18 -18 -18 -18 -18 -18 -18 -18 -19 -21 -22 -24 -26 -26 -27 -27 -28 -28 -28 -28 -28 -28 -28 -28 -27 -28 -27 -25 -30 -29 -28 -28 -29 -28 -29 -29 -29 -29 -30 -30 -30 -29 -29 -32 -29 -28 -30 -32 -31 -32 -31
-20 -19 -19 -19 -20 -20 -22 -20 -20 -19 -19 -19 -18 -18 -18 -18 -18 -18 -18 -19 -19 -22 -24 -25 -26 -27 -28 -29 -29 -28 -28 -28 -29 -28 -29 -28 -30 -28 -27 -26 -26 -28 -31 -31 -31 -31 -30 -31 -31 -31 -30 -30 -30 -27 -27 -31 -31 -33 -33 -32 -32 -32 -30
-21 -21 -20 -20 -20 -19 -19 -20 -20 -20 -19 -19 -19 -19 -20 -19 -19 -19 -20 -20 -22 -24 -25 -26 -27 -28 -28 -29 -29 -29 -29 -29 -29 -29 -28 -29 -29 -29 -28 -27 -27 -26 -30 -30 -31 -31 -31 -31 -31 -30 -29 -28 -29 -30 -31 -31 -31 -33 -33 -33 -34 -32 -30
-23 -23 -22 -22 -21 -21 -21 -21 -21 -20 -20 -20 -20 -20 -20 -20 -21 -20 -20 -21 -23 -24 -25 -26 -27 -28 -28 -29 -29 -29 -29 -29 -28 -28 -28 -28 -28 -28 -28 -28 -29 -34 -30 -31 -31 -31 -30 -30 -31 -31 -32 -32 -33 -33 -34 -34 -32 -34 -34 -35 -36 -34 -32
-28 -26 -24 -25 -25 -24 -23 -23 -22 -22 -22 -22 -21 -21 -21 -20 -23 -24 -25 -25 -25 -25 -25 -26 -27 -28 -28 -28 -29 -29 -29 -29 -29 -29 -29 -29 -28 -29 -30 -31 -31 -29 -32 -30 -31 -32 -32 -31 -31 -32 -32 -32 -33 -33 -33 -32 -33 -35 -34 -35 -34 -35 -34
-29 -28 -26 -25 -25 -24 -23 -23 -23 -22 -22 -21 -21 -21 -21 -24 -26 -26 -26 -27 -27 -27 -27 -27 -28 -28 -29 -29 -29 -29 -29 -29 -29 -29 -29 -28 -29 -28 -29 -30 -31 -30 -31 -32 -31 -32 -32 -30 -33 -33 -33 -35 -35 -34 -31 -32 -33 -33 -34 -34 -34 -35 -34